Date,TemperatureHighF,TemperatureAvgF,TemperatureLowF,DewpointHighF,DewpointAvgF,DewpointLowF,HumidityHigh,HumidityAvg,HumidityLow,PressureMaxIn,PressureMinIn,WindSpeedMaxMPH,WindSpeedAvgMPH,GustSpeedMaxMPH,PrecipitationSumIn
2013-10-1,75,62,49,62,54,47,93,78,53,29.92,29.85,18,4,18,0.00
2013-10-2,74,61,51,61,56,49,95,84,60,29.97,29.86,16,4,16,0.00
2013-10-3,71,61,53,61,56,50,98,85,63,29.92,29.81,18,4,18,0.00
2013-10-4,84,69,47,51,28,10,97,38,7,30.02,29.87,43,14,43,0.00
2013-10-5,89,77,58,30,21,11,33,13,6,30.10,30.00,40,15,40,0.00
2013-10-6,93,75,57,42,26,7,56,20,4,30.06,29.94,23,7,25,0.00
2013-10-7,79,62,49,58,43,27,94,54,22,29.97,29.88,18,5,18,0.00
2013-10-8,72,57,44,58,50,40,95,79,50,29.92,29.80,15,4,18,0.00
2013-10-9,58,56,54,54,53,51,93,89,86,29.81,29.75,4,1,4,0.00
2013-10-10,68,57,44,53,49,41,92,74,49,30.01,29.89,18,4,18,0.00
2013-10-11,71,57,47,56,50,45,95,80,52,30.05,29.94,18,4,18,0.00
2013-10-12,73,57,44,57,50,42,96,80,45,29.97,29.88,17,4,17,0.00
2013-10-13,70,56,44,56,50,43,96,83,55,30.02,29.92,15,3,15,0.00
2013-10-14,84,62,47,56,47,32,96,68,16,30.02,29.90,28,6,28,0.00
2013-10-15,86,68,52,48,36,27,81,34,12,29.95,29.85,27,7,27,0.00
2013-10-16,86,69,50,40,30,17,60,27,8,30.05,29.95,27,8,27,0.00
2013-10-17,79,62,50,57,40,29,91,50,19,30.03,29.90,17,6,17,0.00
2013-10-18,77,61,48,57,46,36,89,60,26,29.99,29.92,18,5,18,0.00
2013-10-19,80,63,51,58,45,31,94,56,23,30.01,29.93,20,6,20,0.00
2013-10-20,72,57,43,58,50,38,95,79,50,29.98,29.88,18,4,18,0.00
2013-10-21,70,57,47,59,53,46,98,86,59,29.98,29.89,15,4,15,0.00
2013-10-22,71,56,45,58,52,43,99,88,61,30.00,29.89,16,4,16,0.01
2013-10-23,68,58,52,57,54,52,98,88,66,29.98,29.88,16,3,16,0.00
2013-10-24,70,60,53,57,55,51,94,83,62,30.05,29.94,16,3,16,0.00
2013-10-25,70,58,48,59,54,47,97,88,67,30.13,30.00,12,4,12,0.00
2013-10-26,75,57,42,60,51,41,97,82,42,30.09,29.96,18,3,18,0.01
2013-10-27,70,56,41,59,51,39,96,84,62,29.97,29.80,17,4,17,0.00
2013-10-28,64,56,47,55,50,44,96,80,60,29.92,29.77,22,4,22,0.01
2013-10-29,64,55,46,53,49,44,97,83,58,30.00,29.92,18,4,18,0.00
2013-10-30,72,55,44,51,46,42,93,75,38,30.07,29.97,15,4,15,0.00
2013-10-31,75,57,43,51,43,37,93,65,28,30.09,29.98,14,5,14,0.00